This demonstration page uses our WeatherBlox Daily Observations layout. Learn more.

Left ArrowRight Arrow

41.55636, -103.73856

Hourly Observations for June 10, 2019

Temp ( °F °C ) Dew Point ( °F °C ) Humidity (%) Winds ( mph kmh ) Pressure ( in mb ) Visibility ( mi km ) Precip ( " mm )
12:58 am 00:58 Clear 58 14.7 29 -1.8 32 32 NE 7 11 30.25 1024 10 16 N/A
1:58 am 01:58 Clear 56 13.3 32 0.1 41 41 NE 6 9 30.29 1026 10 16 N/A
2:58 am 02:58 Clear 50 9.9 34 1 54 54 S 5 7 30.36 1028 10 16 N/A
3:58 am 03:58 Clear 49 9.2 32 0.1 53 53 SSW 6 9 30.41 1030 10 16 N/A
4:58 am 04:58 Clear 47 8.6 31 -0.4 54 54 SSW 7 11 30.42 1030 10 16 N/A
5:58 am 05:58 Clear 48 8.7 30 -1 51 51 SW 12 19 30.41 1030 10 16 N/A
6:58 am 06:58 Clear 45 7 32 0.2 62 62 SW 13 20 30.44 1031 10 16 N/A
7:58 am 07:58 Clear 45 7 31 -0.3 60 60 SW 13 20 30.43 1031 10 16 N/A
8:58 am 08:58 Clear 43 6.2 31 -0.3 63 63 SW 13 20 30.45 1031 10 16 N/A
9:58 am 09:58 Clear 42 5.5 31 -0.4 66 66 SSW 9 15 30.47 1032 10 16 N/A
10:58 am 10:58 Clear 41 4.8 31 -0.8 67 67 SSW 12 19 30.47 1032 10 16 N/A
11:58 am 11:58 Sunny 41 5 31 -0.3 69 69 SSW 10 17 30.41 1030 10 16 N/A
12:58 pm 12:58 Sunny 45 7.4 35 1.9 68 68 SSW 15 24 30.39 1029 10 16 N/A
1:58 pm 13:58 Sunny 52 11.1 39 3.8 61 61 SSW 15 24 30.37 1029 10 16 N/A
2:59 pm 14:59 Sunny 57 14.1 41 4.8 54 54 SW 17 28 30.36 1028 10 16 N/A
3:58 pm 15:58 Sunny 62 16.6 37 2.7 40 40 SW 20 31 30.33 1027 10 16 N/A
5:58 pm 17:58 Sunny 66 18.8 29 -1.9 25 25 SSW 15 24 30.28 1025 10 16 N/A
6:58 pm 18:58 Sunny 67 19.5 30 -1 25 25 S 14 22 30.24 1024 10 16 N/A
7:58 pm 19:58 Sunny 69 20.4 36 2.2 30 30 SW 13 20 30.21 1023 10 16 N/A
8:58 pm 20:58 Sunny 69 20.6 38 3.2 32 32 SSW 7 11 30.19 1022 10 16 N/A
9:58 pm 21:58 Sunny 70 21.2 35 1.7 28 28 S 5 7 30.16 1022 10 16 N/A
10:58 pm 22:58 Sunny 70 21.1 31 -0.5 24 24 N N/A 30.14 1021 10 16 N/A
11:58 pm 23:58 Sunny 70 21.1 38 3.5 32 32 W 5 7 30.11 1020 10 16 N/A

Powered by AerisWeather